TimeEST,TemperatureF,Dew PointF,Humidity,Sea Level PressureIn,VisibilityMPH,Wind Direction,Wind SpeedMPH,Gust SpeedMPH,PrecipitationIn,Events,Conditions,WindDirDegrees,DateUTC
12:53 AM,19.9,17.1,89,30.24,10.0,Calm,Calm,-,N/A,,Clear,0,2012-11-20 05:53:00
1:53 AM,19.0,16.0,88,30.24,10.0,Calm,Calm,-,N/A,,Clear,0,2012-11-20 06:53:00
2:53 AM,18.0,15.1,88,30.23,10.0,Calm,Calm,-,N/A,,Clear,0,2012-11-20 07:53:00
3:53 AM,19.0,15.1,85,30.22,10.0,Calm,Calm,-,N/A,,Clear,0,2012-11-20 08:53:00
4:53 AM,17.1,14.0,88,30.22,10.0,Calm,Calm,-,N/A,,Clear,0,2012-11-20 09:53:00
5:53 AM,18.0,14.0,84,30.22,10.0,Calm,Calm,-,N/A,,Clear,0,2012-11-20 10:53:00
6:53 AM,17.1,14.0,88,30.22,8.0,Calm,Calm,-,N/A,,Clear,0,2012-11-20 11:53:00
7:53 AM,21.9,18.0,85,30.22,10.0,Calm,Calm,-,N/A,,Clear,0,2012-11-20 12:53:00
8:53 AM,30.9,23.0,72,30.22,10.0,Calm,Calm,-,N/A,,Clear,0,2012-11-20 13:53:00
9:53 AM,35.1,24.1,64,30.22,10.0,North,5.8,-,N/A,,Clear,10,2012-11-20 14:53:00
10:53 AM,39.0,23.0,53,30.19,10.0,NNE,6.9,-,N/A,,Clear,20,2012-11-20 15:53:00
11:53 AM,43.0,24.1,47,30.17,10.0,NNW,9.2,-,N/A,,Clear,340,2012-11-20 16:53:00
12:53 PM,45.0,25.0,46,30.16,10.0,North,8.1,-,N/A,,Clear,360,2012-11-20 17:53:00
1:53 PM,46.0,25.0,44,30.16,10.0,North,5.8,-,N/A,,Clear,360,2012-11-20 18:53:00
2:53 PM,45.0,25.0,46,30.16,10.0,NNE,4.6,-,N/A,,Clear,20,2012-11-20 19:53:00
3:53 PM,35.1,25.0,67,30.17,10.0,Calm,Calm,-,N/A,,Clear,0,2012-11-20 20:53:00
4:53 PM,30.0,24.1,79,30.19,10.0,Calm,Calm,-,N/A,,Clear,0,2012-11-20 21:53:00
5:53 PM,28.0,23.0,81,30.21,10.0,Calm,Calm,-,N/A,,Clear,0,2012-11-20 22:53:00
6:53 PM,27.0,23.0,85,30.22,10.0,Calm,Calm,-,N/A,,Clear,0,2012-11-20 23:53:00
7:53 PM,26.1,23.0,88,30.22,10.0,Calm,Calm,-,N/A,,Clear,0,2012-11-21 00:53:00
8:53 PM,25.0,21.0,85,30.23,10.0,Calm,Calm,-,N/A,,Clear,0,2012-11-21 01:53:00
9:53 PM,25.0,21.9,88,30.24,9.0,Calm,Calm,-,N/A,,Clear,0,2012-11-21 02:53:00
10:53 PM,23.0,19.9,88,30.24,8.0,Calm,Calm,-,N/A,,Clear,0,2012-11-21 03:53:00
11:53 PM,23.0,19.9,88,30.25,8.0,Calm,Calm,-,N/A,,Clear,0,2012-11-21 04:53:00